Вернуться в каталог

DMSP 5D-3 F18

USA 210

АктивенПогодаSSO
NORAD 35951·PAYLOAD·🇺🇸 United States

Запущен Oct 18, 2009 с Vandenberg Space Force Base

Loading…

Ближайшие Пролёты (ближайшие 24 часа)

TLE

СвежийSource: Space-Track

Эпоха: Sep 14, 2026, 14:17 UTC

1 35951U 09057A   26257.59532007  .00000142  00000-0  96560-4 0  9994
2 35951  98.9146 238.2138 0011219   3.4474 356.6774 14.14941102872232

Отслеживайте DMSP 5D-3 F18 в реальном времени с AllMySat

Download on the App Store